Location: Ecklingerode
(51.5036°N, 10.3122°E)
Time: 01:10:02
(UTC+00:00)

USA 307 - Pass Details

Date: 29 October 2020
Orbit: 569 x 579 km, 54.0° (Epoch: 23 November)

Event Time Altitude Azimuth Distance (km) Brightness Sun altitude
Rises 16:59:45 0° 291° (WNW) 2,792 7.6 -10.3°
Reaches altitude 10° 17:02:01 10° 290° (WNW) 1,889 6.6 -10.7°
Maximum altitude 17:06:18 77° 205° (SSW) 594 3.0 -11.3°
Enters shadow 17:10:18 12° 120° (ESE) 1,770 4.9 -11.9°
